Peoria, IL

11:12 PM CDT on July 27, 2017 (GMT -0500)
Greater Peoria Regional

Weather History for KPIA - May, 2013

Change the Weather History Date:

Friday, May 17, 2013

  Actual Average Record
Temperature  
Mean Temperature 70 °F 63 °F  
Max Temperature 81 °F 74 °F 92 °F (1894)
Min Temperature 59 °F 52 °F 34 °F (1973)
Degree Days  
Heating Degree Days 0 4  
Month to date heating degree days 79 104  
Since 1 July heating degree days 5771 5769  
Cooling Degree Days 5 2  
Month to date cooling degree days 36 24  
Year to date cooling degree days 45 38  
Growing Degree Days 20 (Base 50)    
Moisture  
Dew Point 60 °F    
Average Humidity 66    
Maximum Humidity 93    
Minimum Humidity 39    
Precipitation  
Precipitation 0.30 in 0.15 in 1.39 in (1986)
Month to date precipitation 3.13 2.39  
Year to date precipitation 20.24 12.39  
Snow  
Snow 0.00 in 0.00 in 0.00 in ()
Month to date snowfall 0.0 0.0  
Since 1 July snowfall 22.7 24.6  
Snow Depth 0.00 in    
Sea Level Pressure  
Sea Level Pressure 29.96 in    
Wind  
Wind Speed 6 mph (SSE)    
Max Wind Speed 15 mph    
Max Gust Speed 19 mph    
Visibility 8 miles    
Events Rain    
T = Trace of Precipitation, MM = Missing Value Source: NWS Daily Summary

Daily Weather History Graph

Daily Weather History Graph

Search for Another Location

Airport or City:

Trip Planner

Search our weather history database for the weather conditions in past years. The results will help you decide how hot, cold, wet, or windy it might be!

Date:

Astronomy

May. 17, 2013 Rise Set
Actual Time 5:39 AM CDT 8:11 PM CDT
Civil Twilight 5:08 AM CDT 8:42 PM CDT
Nautical Twilight 4:29 AM CDT 9:21 PM CDT
Astronomical Twilight 3:46 AM CDT 10:05 PM CDT
Moon 12:13 PM CDT (5/17) 1:02 AM CDT (5/17)
Length of Visible Light 15h 33m
Length of Day
14h 31m
Waxing Crescent, 45% of the Moon is Illuminated
May 17
Waxing Crescent
May 17
First Quarter
May 24
Full
May 31
Last Quarter
Jun 8
New

Hourly Weather History & Observations

Time (CDT) Temp. Heat Index Dew Point Humidity Pressure Visibility Wind Dir Wind Speed Gust Speed Precip Events Conditions
12:54 AM 66.0 °F - 57.9 °F 75% 29.93 in 10.0 mi South 6.9 mph - N/A   Clear
1:54 AM 64.0 °F - 57.0 °F 78% 29.93 in 10.0 mi South 5.8 mph - N/A   Clear
2:54 AM 63.0 °F - 57.0 °F 81% 29.93 in 10.0 mi SSW 3.5 mph - N/A   Clear
3:54 AM 63.0 °F - 57.0 °F 81% 29.94 in 10.0 mi SSW 3.5 mph - N/A   Clear
4:54 AM 59.0 °F - 55.9 °F 90% 29.94 in 8.0 mi Calm Calm - N/A   Clear
5:54 AM 60.1 °F - 57.0 °F 90% 29.96 in 9.0 mi Calm Calm - N/A   Clear
6:54 AM 62.6 °F - 57.2 °F 82% 29.99 in 10.0 mi SE 3.5 mph - N/A   Clear
7:54 AM 64.9 °F - 59.0 °F 81% 29.99 in 9.0 mi ESE 3.5 mph - N/A   Clear
8:54 AM 69.1 °F - 59.0 °F 70% 29.99 in 10.0 mi ENE 3.5 mph - N/A   Clear
9:54 AM 72.0 °F - 60.1 °F 66% 29.98 in 10.0 mi East 8.1 mph - N/A   Clear
10:54 AM 75.9 °F - 59.0 °F 56% 29.98 in 10.0 mi East 9.2 mph - N/A   Partly Cloudy
11:54 AM 78.1 °F - 60.1 °F 54% 29.96 in 10.0 mi ESE 8.1 mph - N/A   Mostly Cloudy
12:54 PM 75.9 °F - 60.1 °F 58% 29.96 in 10.0 mi SSE 9.2 mph - N/A   Overcast
1:54 PM 75.2 °F - 60.8 °F 61% 29.96 in 10.0 mi South 11.5 mph - N/A   Overcast
2:54 PM 80.1 °F 80.7 °F 59.0 °F 48% 29.94 in 10.0 mi SE 10.4 mph - N/A   Scattered Clouds
3:54 PM 80.1 °F 79.9 °F 53.1 °F 39% 29.93 in 10.0 mi South 11.5 mph - N/A   Clear
4:54 PM 80.1 °F 80.0 °F 54.0 °F 40% 29.92 in 10.0 mi SSE 11.5 mph - N/A   Clear
5:54 PM 78.1 °F - 55.9 °F 46% 29.92 in 10.0 mi SE 6.9 mph - N/A   Overcast
6:54 PM 77.0 °F - 57.9 °F 52% 29.92 in 10.0 mi East 3.5 mph - N/A   Scattered Clouds
7:46 PM 69.1 °F - 64.0 °F 84% 29.96 in 1.8 mi South 11.5 mph - 0.05 in Rain Heavy Rain
7:48 PM 69.8 °F - 64.4 °F 83% 29.96 in 1.8 mi South 9.2 mph - 0.06 in Rain Heavy Rain
7:54 PM 69.1 °F - 64.9 °F 87% 29.95 in 3.0 mi SW 8.1 mph - 0.07 in Rain Light Rain
8:02 PM 69.1 °F - 64.0 °F 84% 29.96 in 1.8 mi WSW 8.1 mph - 0.02 in Rain Rain
8:10 PM 69.1 °F - 64.0 °F 84% 29.96 in 1.0 mi WSW 5.8 mph - 0.11 in Rain Heavy Rain
8:19 PM 69.1 °F - 64.0 °F 84% 29.95 in 6.0 mi WNW 4.6 mph - 0.14 in Rain Rain
8:54 PM 66.9 °F - 64.0 °F 90% 29.96 in 6.0 mi Calm Calm - 0.18 in Rain Light Rain
9:23 PM 66.9 °F - 64.9 °F 93% 29.98 in 7.0 mi East 8.1 mph - 0.00 in Rain Light Rain
9:54 PM 69.1 °F - 64.9 °F 87% 29.98 in 7.0 mi East 4.6 mph - 0.01 in Rain Light Rain
10:54 PM 66.9 °F - 64.9 °F 93% 29.99 in 4.0 mi East 6.9 mph - 0.01 in Rain Light Rain
11:54 PM 66.9 °F - 64.9 °F 93% 29.98 in 5.0 mi East 5.8 mph - 0.03 in   Overcast